Stündliche Wetter Kytaihorod

Heute, 16 Mai, Sonntag

Zeit Temperatur Niederschläge Wind Luftdruck Luftfeuchtigkeit
00:00 +12°C° 0 mm 1 m/S 735 mmHg 82%
01:00 +10°C° 0 mm 2 m/S 735 mmHg 84%
02:00 +10°C° 0 mm 2 m/S 735 mmHg 86%
03:00 +10°C° 0 mm 2 m/S 735 mmHg 87%
04:00 +10°C° 0 mm 2 m/S 735 mmHg 88%
05:00 +10°C° 0 mm 3 m/S 735 mmHg 89%
06:00 +12°C° 0 mm 3 m/S 735 mmHg 84%
07:00 +14°C° 0 mm 3 m/S 735 mmHg 79%
08:00 +17°C° 0 mm 3 m/S 735 mmHg 74%
09:00 +18°C° 0 mm 3 m/S 735 mmHg 69%
10:00 +19°C° 0 mm 3 m/S 735 mmHg 64%
11:00 +21°C° 0 mm 3 m/S 735 mmHg 59%
12:00 +22°C° 0 mm 4 m/S 735 mmHg 55%
13:00 +22°C° 0 mm 4 m/S 735 mmHg 52%
14:00 +23°C° 0 mm 4 m/S 734 mmHg 49%
15:00 +22°C° 0 mm 4 m/S 734 mmHg 53%
16:00 +22°C° 0 mm 3 m/S 734 mmHg 57%
17:00 +22°C° 0 mm 3 m/S 733 mmHg 61%
18:00 +20°C° 0 mm 3 m/S 733 mmHg 66%
19:00 +18°C° 0 mm 3 m/S 733 mmHg 71%
20:00 +16°C° 0 mm 3 m/S 733 mmHg 76%
21:00 +16°C° 0 mm 2 m/S 733 mmHg 77%
22:00 +15°C° 0 mm 2 m/S 732 mmHg 79%
23:00 +15°C° 0 mm 2 m/S 732 mmHg 80%

Morgen, 17 Mai, Montag

Zeit Temperatur Niederschläge Wind Luftdruck Luftfeuchtigkeit
00:00 +14°C° 0 mm 2 m/S 732 mmHg 81%
01:00 +14°C° 0 mm 2 m/S 732 mmHg 82%
02:00 +14°C° 0 mm 2 m/S 732 mmHg 83%
03:00 +14°C° 0 mm 2 m/S 731 mmHg 83%
04:00 +14°C° 0 mm 2 m/S 731 mmHg 84%
05:00 +14°C° 0 mm 2 m/S 731 mmHg 84%
06:00 +15°C° 0 mm 2 m/S 731 mmHg 81%
07:00 +16°C° 0 mm 2 m/S 731 mmHg 78%
08:00 +18°C° 0 mm 3 m/S 731 mmHg 75%
09:00 +18°C° 0.8 mm 3 m/S 731 mmHg 77%
10:00 +18°C° 0.8 mm 3 m/S 730 mmHg 80%
11:00 +17°C° 0.8 mm 4 m/S 730 mmHg 83%
12:00 +17°C° 1.3 mm 4 m/S 730 mmHg 85%
13:00 +16°C° 1.3 mm 3 m/S 730 mmHg 86%
14:00 +16°C° 1.3 mm 3 m/S 730 mmHg 88%
15:00 +16°C° 0.5 mm 3 m/S 729 mmHg 87%
16:00 +16°C° 0.5 mm 3 m/S 729 mmHg 85%
17:00 +16°C° 0.5 mm 3 m/S 729 mmHg 84%
18:00 +14°C° 0 mm 3 m/S 729 mmHg 87%
19:00 +15°C° 0 mm 2 m/S 729 mmHg 89%
20:00 +14°C° 0 mm 2 m/S 729 mmHg 92%
21:00 +14°C° 0 mm 1 m/S 729 mmHg 91%
22:00 +13°C° 0 mm 1 m/S 728 mmHg 91%
23:00 +13°C° 0 mm 1 m/S 728 mmHg 90%

übermorgen, 18 Mai, Dienstag

Zeit Temperatur Niederschläge Wind Luftdruck Luftfeuchtigkeit
00:00 +13°C° 0 mm 1 m/S 728 mmHg 90%
01:00 +12°C° 0 mm 1 m/S 728 mmHg 90%
02:00 +12°C° 0 mm 1 m/S 727 mmHg 90%
03:00 +12°C° 0.4 mm 1 m/S 727 mmHg 92%
04:00 +12°C° 0.4 mm 1 m/S 727 mmHg 94%
05:00 +13°C° 0.4 mm 1 m/S 727 mmHg 96%
06:00 +13°C° 0.4 mm 1 m/S 727 mmHg 94%
07:00 +14°C° 0.4 mm 2 m/S 727 mmHg 92%
08:00 +15°C° 0.4 mm 2 m/S 727 mmHg 91%
09:00 +14°C° 0.6 mm 3 m/S 727 mmHg 88%
10:00 +16°C° 0.6 mm 3 m/S 728 mmHg 86%
11:00 +15°C° 0.6 mm 4 m/S 728 mmHg 84%
12:00 +15°C° 0.7 mm 5 m/S 728 mmHg 85%
13:00 +14°C° 0.7 mm 6 m/S 729 mmHg 85%
14:00 +12°C° 0.7 mm 7 m/S 729 mmHg 86%
15:00 +12°C° 0.3 mm 7 m/S 729 mmHg 87%
16:00 +11°C° 0.3 mm 7 m/S 730 mmHg 87%
17:00 +10°C° 0.3 mm 7 m/S 730 mmHg 87%
18:00 +10°C° 0.1 mm 7 m/S 731 mmHg 87%
19:00 +9°C° 0.1 mm 7 m/S 731 mmHg 87%
20:00 +9°C° 0.1 mm 7 m/S 731 mmHg 87%
21:00 +9°C° 0.1 mm 7 m/S 731 mmHg 87%
22:00 +9°C° 0.1 mm 7 m/S 731 mmHg 86%
23:00 +9°C° 0.1 mm 7 m/S 732 mmHg 85%

19 Mai, Mittwoch

Zeit Temperatur Niederschläge Wind Luftdruck Luftfeuchtigkeit
00:00 +9°C° 0.1 mm 7 m/S 732 mmHg 86%
01:00 +9°C° 0.1 mm 7 m/S 732 mmHg 87%
02:00 +9°C° 0.1 mm 8 m/S 732 mmHg 87%
03:00 +7°C° 0.1 mm 8 m/S 732 mmHg 87%
04:00 +7°C° 0.1 mm 8 m/S 732 mmHg 87%
05:00 +7°C° 0.1 mm 8 m/S 732 mmHg 87%
06:00 +9°C° 0.1 mm 8 m/S 732 mmHg 85%
07:00 +10°C° 0.1 mm 8 m/S 733 mmHg 83%
08:00 +10°C° 0.1 mm 8 m/S 733 mmHg 81%
09:00 +11°C° 0.1 mm 7 m/S 733 mmHg 79%
10:00 +12°C° 0.1 mm 7 m/S 734 mmHg 77%
11:00 +12°C° 0.1 mm 7 m/S 734 mmHg 74%
12:00 +14°C° 0.1 mm 7 m/S 734 mmHg 71%
13:00 +15°C° 0.1 mm 7 m/S 735 mmHg 67%
14:00 +16°C° 0.1 mm 8 m/S 735 mmHg 64%
15:00 +16°C° 0 mm 7 m/S 735 mmHg 64%
16:00 +16°C° 0 mm 6 m/S 735 mmHg 65%
17:00 +17°C° 0 mm 4 m/S 735 mmHg 66%
18:00 +14°C° 0 mm 4 m/S 735 mmHg 71%
19:00 +13°C° 0 mm 3 m/S 735 mmHg 77%
20:00 +12°C° 0 mm 2 m/S 735 mmHg 83%
21:00 +10°C° 0 mm 2 m/S 735 mmHg 84%
22:00 +11°C° 0 mm 1 m/S 735 mmHg 85%
23:00 +10°C° 0 mm 1 m/S 735 mmHg 85%

20 Mai, Donnerstag

Zeit Temperatur Niederschläge Wind Luftdruck Luftfeuchtigkeit
00:00 +10°C° 0 mm 1 m/S 735 mmHg 85%
01:00 +10°C° 0 mm 1 m/S 735 mmHg 84%
02:00 +10°C° 0 mm 1 m/S 735 mmHg 83%
03:00 +11°C° 0 mm 1 m/S 735 mmHg 83%
04:00 +10°C° 0 mm 2 m/S 735 mmHg 83%
05:00 +10°C° 0 mm 2 m/S 735 mmHg 84%
06:00 +10°C° 0 mm 3 m/S 735 mmHg 84%
07:00 +11°C° 0 mm 3 m/S 735 mmHg 84%
08:00 +11°C° 0 mm 3 m/S 735 mmHg 84%
09:00 +11°C° 0.5 mm 3 m/S 735 mmHg 86%
10:00 +11°C° 0.5 mm 3 m/S 735 mmHg 89%
11:00 +11°C° 0.5 mm 3 m/S 735 mmHg 91%
12:00 +13°C° 0.5 mm 2 m/S 735 mmHg 91%
13:00 +13°C° 0.5 mm 2 m/S 735 mmHg 90%
14:00 +13°C° 0.5 mm 1 m/S 734 mmHg 89%
15:00 +12°C° 0.9 mm 2 m/S 734 mmHg 91%
16:00 +12°C° 0.9 mm 2 m/S 734 mmHg 93%
17:00 +12°C° 0.9 mm 2 m/S 734 mmHg 95%
18:00 +10°C° 1.2 mm 3 m/S 734 mmHg 96%
19:00 +10°C° 1.2 mm 3 m/S 734 mmHg 96%
20:00 +10°C° 1.2 mm 4 m/S 734 mmHg 97%
21:00 +9°C° 2.6 mm 5 m/S 733 mmHg 97%
22:00 +9°C° 2.6 mm 6 m/S 732 mmHg 97%
23:00 +9°C° 2.6 mm 6 m/S 731 mmHg 97%

21 Mai, Freitag

Zeit Temperatur Niederschläge Wind Luftdruck Luftfeuchtigkeit
00:00 +9°C° 4.9 mm 8 m/S 730 mmHg 96%
01:00 +8°C° 4.9 mm 9 m/S 729 mmHg 96%
02:00 +8°C° 4.9 mm 10 m/S 728 mmHg 96%
03:00 +8°C° 3.9 mm 10 m/S 727 mmHg 96%
04:00 +8°C° 3.9 mm 10 m/S 726 mmHg 96%
05:00 +8°C° 3.9 mm 9 m/S 725 mmHg 96%
06:00 +8°C° 1.7 mm 9 m/S 725 mmHg 95%
07:00 +9°C° 1.7 mm 8 m/S 725 mmHg 95%
08:00 +9°C° 1.7 mm 8 m/S 725 mmHg 95%
09:00 +8°C° 0.7 mm 9 m/S 726 mmHg 94%
10:00 +8°C° 0.7 mm 9 m/S 727 mmHg 93%
11:00 +8°C° 0.7 mm 10 m/S 727 mmHg 92%
12:00 +8°C° 0.2 mm 11 m/S 729 mmHg 91%
13:00 +7°C° 0.2 mm 11 m/S 730 mmHg 90%
14:00 +7°C° 0.2 mm 11 m/S 731 mmHg 89%
15:00 +8°C° 0.1 mm 10 m/S 732 mmHg 87%
16:00 +10°C° 0.1 mm 9 m/S 733 mmHg 86%
17:00 +10°C° 0.1 mm 7 m/S 734 mmHg 85%
18:00 +10°C° 0 mm 6 m/S 734 mmHg 85%
19:00 +9°C° 0 mm 5 m/S 735 mmHg 86%
20:00 +10°C° 0 mm 4 m/S 736 mmHg 87%
21:00 +8°C° 0 mm 4 m/S 736 mmHg 88%
22:00 +8°C° 0 mm 3 m/S 737 mmHg 90%
23:00 +7°C° 0 mm 3 m/S 737 mmHg 91%
Mehr zeigen

Wir brauchen deine Erlaubnis

Meteoprog und unser Service Anbieter werden persönliche Daten aufbewahren, so wie Cookies, Geräte Bezeichnung oder ähnliche Technologien von deinem Gerät und Prozess, so wie Persönliche Daten Inhalte und Werbungen, genauso wie social Media und den Verkehr zu analysieren.

  • Aufbewahrung und/oder Zugang zu deiner Geräte Informationen.

    Cookies, Geräte Bezeichnung oder andere Informationen, können aufbewahrt oder Zugang zu deinem Gerät erhalten, für den Grund, der oben angegeben wird.

  • Personalisierte Werbung und Inhalte, Messungen, Einblick in das Publikum und Produkt Entwicklung.

    Werbungen und Inhalte können personalisiert werden, basierend auf ein Profil. Mehr Daten können besser personalisierte Werbungen und Inhalte hinzufügen. Werbung und Inhalte können gezeigt und gemessen werden. Einblicke über das Publikum, welche die Werbung gesehen haben und den Inhalt, können abgeleitet werden. So wie Daten können genutzt werden, um es zu verbessern oder die Benutzer Erfahrung zu verbessern das System und die Software.

Wenn du “Ich stimme zu” klickst, erlaubst du uns, die Cookies zu benutzen die Geräte Bezeichnung, den Web oder ähnliche Technologien zu benutzen. Deine Settings, können in deinem Gerät bei deinem Browser geändert werden.

Für den bestimmten Zweck, berechtigten Interessen beruhen darauf, mehr als auf den Inhalt. Du kannst mehr darüber in unseren Privaten und Cookie Politik lesen.